Weather History for KTYQ - June, 2013

Change the Weather History Date:

Wednesday, June 26, 2013

  Actual Average (KEYE) Record (KEYE)
Temperature  
Mean Temperature 75 °F 75 °F  
Max Temperature 83 °F 84 °F 91 °F (1998)
Min Temperature 67 °F 66 °F 54 °F (2004)
Degree Days  
Heating Degree Days 0 0  
Month to date heating degree days 12  
Since 1 June heating degree days 12  
Since 1 July heating degree days 5346  
Cooling Degree Days 10 10  
Month to date cooling degree days 194  
Year to date cooling degree days 278  
Since 1 June cooling degree days 194  
Growing Degree Days 25 (Base 50)    
Moisture  
Dew Point 66 °F    
Average Humidity 75    
Maximum Humidity 88    
Minimum Humidity 58    
Precipitation  
Precipitation 0.06 in 0.16 in 0.71 in (1993)
Month to date precipitation 3.86  
Year to date precipitation 20.67  
Sea Level Pressure  
Sea Level Pressure 29.86 in    
Wind  
Wind Speed 7 mph (SSW)    
Max Wind Speed 17 mph    
Max Gust Speed 24 mph    
Visibility 10 miles    
Events Rain , Thunderstorm    
T = Trace of Precipitation, MM = Missing Value Source: NWS Daily Summary

Daily Weather History Graph

Daily Weather History Graph

Search for Another Location

Airport or City:

Trip Planner

Search our weather history database for the weather conditions in past years. The results will help you decide how hot, cold, wet, or windy it might be!

Date:

Astronomy

Jun. 26, 2013 Rise Set
Actual Time 6:17 AM EDT 9:18 PM EDT
Civil Twilight 5:44 AM EDT 9:50 PM EDT
Nautical Twilight 5:03 AM EDT 10:32 PM EDT
Astronomical Twilight 4:14 AM EDT 11:21 PM EDT
Moon 11:40 PM EDT 10:08 AM EDT
Length of Visible Light 16h 05m
Length of Day
15h 00m
Waning Gibbous, 85% of the Moon is Illuminated
Jun 26
Waning Gibbous
Jun 30
Last Quarter
Jul 8
New
Jul 15
First Quarter
Jul 22
Full

Hourly Weather History & Observations

Time (EDT) Temp. Heat Index Dew Point Humidity Pressure Visibility Wind Dir Wind Speed Gust Speed Precip Events Conditions
12:15 AM 69.8 °F - 64.4 °F 83% 29.92 in 10.0 mi South 4.6 mph - N/A   Light Drizzle
12:35 AM 69.4 °F - 64.2 °F 83% 29.92 in 10.0 mi SSW 4.6 mph - N/A   Scattered Clouds
12:55 AM 69.4 °F - 64.4 °F 84% 29.93 in 10.0 mi Calm Calm - N/A   Scattered Clouds
1:15 AM 69.4 °F - 64.6 °F 84% 29.93 in 10.0 mi SW 3.5 mph - N/A Rain Light Rain
1:35 AM 69.1 °F - 64.6 °F 86% 29.92 in 10.0 mi Calm Calm - N/A   Scattered Clouds
1:55 AM 69.3 °F - 64.8 °F 86% 29.92 in 10.0 mi SW 4.6 mph - N/A Thunderstorm Scattered Clouds
2:15 AM 69.4 °F - 64.9 °F 86% 29.92 in 10.0 mi SW 3.5 mph - N/A Thunderstorm Scattered Clouds
2:35 AM 69.6 °F - 64.4 °F 83% 29.92 in 10.0 mi South 5.8 mph - N/A Thunderstorm Mostly Cloudy
2:55 AM 70.0 °F - 64.4 °F 82% 29.93 in 10.0 mi SW 6.9 mph - N/A Thunderstorm Unknown
3:15 AM 69.4 °F - 64.4 °F 84% 29.93 in 10.0 mi SW 6.9 mph - N/A Thunderstorm Unknown
3:35 AM 69.4 °F - 64.6 °F 84% 29.93 in 10.0 mi SSW 6.9 mph - N/A Rain Light Rain
3:55 AM 69.3 °F - 64.4 °F 84% 29.93 in 10.0 mi Calm Calm - 0.02 in Rain , Thunderstorm Light Thunderstorms and Rain
4:15 AM 69.1 °F - 64.2 °F 84% 29.91 in 10.0 mi South 4.6 mph - 0.02 in Rain , Thunderstorm Light Thunderstorms and Rain
4:35 AM 68.7 °F - 63.9 °F 84% 29.88 in 10.0 mi South 6.9 mph - 0.03 in Rain , Thunderstorm Light Thunderstorms and Rain
4:55 AM 68.5 °F - 63.7 °F 84% 29.88 in 10.0 mi SSW 6.9 mph - 0.04 in Thunderstorm Unknown
5:15 AM 68.5 °F - 63.7 °F 84% 29.91 in 10.0 mi SSW 10.4 mph - N/A Rain Light Rain
5:35 AM 68.2 °F - 63.5 °F 85% 29.91 in 10.0 mi SSW 8.1 mph - N/A   Clear
5:55 AM 67.6 °F - 63.5 °F 87% 29.89 in 10.0 mi SSE 5.8 mph - N/A   Clear
6:15 AM 67.3 °F - 63.5 °F 88% 29.89 in 10.0 mi SSE 6.9 mph - N/A   Clear
6:35 AM 67.3 °F - 63.5 °F 88% 29.91 in 10.0 mi South 6.9 mph - N/A   Clear
6:55 AM 67.3 °F - 63.5 °F 88% 29.90 in 10.0 mi SSE 5.8 mph - N/A   Clear
7:15 AM 67.5 °F - 63.5 °F 87% 29.90 in 10.0 mi South 5.8 mph - N/A   Clear
7:35 AM 68.0 °F - 63.9 °F 87% 29.90 in 10.0 mi South 5.8 mph - N/A   Clear
7:55 AM 68.0 °F - 63.9 °F 87% 29.90 in 10.0 mi South 5.8 mph - N/A   Clear
8:15 AM 69.1 °F - 64.6 °F 86% 29.90 in 10.0 mi South 5.8 mph - N/A   Clear
8:35 AM 69.6 °F - 64.4 °F 83% 29.90 in 10.0 mi South 6.9 mph - N/A   Clear
8:55 AM 70.9 °F - 65.3 °F 82% 29.90 in 10.0 mi South 9.2 mph - N/A   Clear
9:15 AM 72.5 °F - 65.8 °F 80% 29.90 in 10.0 mi South 6.9 mph - N/A   Clear
9:35 AM 72.9 °F - 66.0 °F 79% 29.91 in 10.0 mi South 6.9 mph - N/A   Clear
9:55 AM 74.5 °F - 66.6 °F 76% 29.91 in 10.0 mi SSW 11.5 mph 20.7 mph N/A   Scattered Clouds
10:15 AM 75.0 °F - 66.2 °F 74% 29.90 in 10.0 mi South 13.8 mph 17.3 mph N/A   Scattered Clouds
10:55 AM 76.1 °F - 66.9 °F 73% 29.90 in 10.0 mi South 13.8 mph 18.4 mph N/A   Clear
11:15 AM 76.5 °F - 67.3 °F 73% 29.89 in 10.0 mi SSW 10.4 mph - N/A   Clear
11:35 AM 77.4 °F - 68.0 °F 73% 29.89 in 10.0 mi SSW 11.5 mph - N/A   Clear
11:55 AM 77.9 °F - 67.8 °F 71% 29.88 in 10.0 mi South 10.4 mph - N/A   Clear
12:15 PM 79.7 °F - 69.3 °F 70% 29.88 in 10.0 mi SSW 10.4 mph - N/A   Clear
12:35 PM 79.7 °F - 69.1 °F 70% 29.88 in 10.0 mi SSW 11.5 mph - N/A   Mostly Cloudy
12:55 PM 80.2 °F 83.3 °F 69.8 °F 70% 29.88 in 10.0 mi SW 13.8 mph 18.4 mph N/A   Mostly Cloudy
1:15 PM 81.3 °F 85.2 °F 70.5 °F 70% 29.87 in 10.0 mi SSW 11.5 mph 18.4 mph N/A   Scattered Clouds
1:35 PM 82.4 °F 86.3 °F 70.0 °F 66% 29.86 in 10.0 mi SSW 17.3 mph 20.7 mph N/A   Scattered Clouds
1:55 PM 83.1 °F 87.1 °F 69.8 °F 64% 29.84 in 10.0 mi SSW 10.4 mph 17.3 mph N/A   Clear
2:15 PM 83.3 °F 86.9 °F 69.3 °F 62% 29.85 in 10.0 mi SW 17.3 mph 24.2 mph N/A   Scattered Clouds
2:35 PM 81.7 °F 84.7 °F 68.5 °F 64% 29.84 in 10.0 mi SW 11.5 mph - N/A   Mostly Cloudy
2:55 PM 81.1 °F 84.2 °F 68.9 °F 66% 29.83 in 10.0 mi SSW 13.8 mph 19.6 mph N/A   Mostly Cloudy
3:15 PM 81.1 °F 83.7 °F 67.6 °F 63% 29.82 in 10.0 mi SW 11.5 mph - N/A   Scattered Clouds
3:35 PM 81.0 °F 83.4 °F 67.5 °F 63% 29.82 in 10.0 mi SW 13.8 mph - N/A   Scattered Clouds
3:55 PM 80.2 °F 82.1 °F 65.3 °F 60% 29.81 in 10.0 mi SSW 11.5 mph - N/A   Scattered Clouds
4:15 PM 79.2 °F - 64.2 °F 60% 29.80 in 10.0 mi SW 12.7 mph 16.1 mph N/A   Clear
4:35 PM 78.4 °F - 64.2 °F 62% 29.79 in 10.0 mi SW 9.2 mph - N/A   Clear
4:55 PM 78.3 °F - 65.3 °F 64% 29.79 in 10.0 mi SW 5.8 mph - N/A   Clear
5:15 PM 78.8 °F - 65.1 °F 63% 29.79 in 10.0 mi WSW 6.9 mph - N/A   Clear
5:35 PM 79.3 °F - 64.0 °F 59% 29.79 in 10.0 mi WSW 5.8 mph - N/A   Clear
5:55 PM 79.7 °F - 63.9 °F 58% 29.79 in 10.0 mi WSW 5.8 mph - N/A   Scattered Clouds
6:15 PM 79.0 °F - 64.2 °F 60% 29.79 in 10.0 mi SW 8.1 mph - N/A   Mostly Cloudy
6:35 PM 79.3 °F - 64.4 °F 60% 29.79 in 10.0 mi SW 5.8 mph - N/A   Mostly Cloudy
6:55 PM 78.3 °F - 65.1 °F 64% 29.79 in 10.0 mi SSW 5.8 mph - N/A   Overcast
7:15 PM 78.1 °F - 65.7 °F 65% 29.79 in 10.0 mi SSW 4.6 mph - N/A Thunderstorm Overcast
7:35 PM 78.1 °F - 68.0 °F 71% 29.79 in 10.0 mi SW 8.1 mph - N/A   Mostly Cloudy
7:55 PM 77.4 °F - 67.5 °F 71% 29.79 in 10.0 mi WSW 8.1 mph - N/A   Mostly Cloudy
8:15 PM 77.0 °F - 68.2 °F 74% 29.78 in 10.0 mi SSW 5.8 mph - N/A   Overcast
8:35 PM 77.0 °F - 68.9 °F 76% 29.79 in 10.0 mi SW 3.5 mph - N/A   Overcast
8:55 PM 76.1 °F - 68.2 °F 76% 29.79 in 10.0 mi SSW 8.1 mph - N/A   Overcast
9:15 PM 75.6 °F - 67.1 °F 75% 29.78 in 10.0 mi SSW 8.1 mph - N/A   Overcast
9:35 PM 75.2 °F - 66.7 °F 75% 29.77 in 10.0 mi SSW 4.6 mph - N/A   Overcast
9:55 PM 74.7 °F - 67.1 °F 77% 29.76 in 10.0 mi SSW 4.6 mph - N/A   Overcast
10:15 PM 74.5 °F - 66.2 °F 75% 29.78 in 10.0 mi SSW 5.8 mph - N/A   Overcast
10:35 PM 74.3 °F - 66.4 °F 76% 29.79 in 10.0 mi SSW 8.1 mph - N/A   Overcast
10:55 PM 73.8 °F - 66.0 °F 77% 29.79 in 10.0 mi South 6.9 mph - N/A   Overcast
11:15 PM 72.9 °F - 65.3 °F 77% 29.81 in 10.0 mi SSW 6.9 mph - N/A   Scattered Clouds
11:35 PM 72.3 °F - 65.5 °F 79% 29.81 in 10.0 mi SSW 3.5 mph - N/A   Scattered Clouds
11:55 PM 71.4 °F - 65.3 °F 81% 29.81 in 10.0 mi SSW 5.8 mph - N/A   Scattered Clouds